This is the latest recevied weather packets stored in our database for station/object JS2WAD-13. If no packets are shown the sender has not sent any weather packets the latest 1 day(s).
| Time | Temp. | Humidity | Pressure | Rain* | Wind** | Luminosity | Snow |
|---|---|---|---|---|---|---|---|
| 1777971983 | 20° C | 51% | 911.6 hPa | 0 mm | 1.79 m/s, 145° | 25 W/m² | - |
| 1777971683 | 20° C | 51% | 911.5 hPa | 0 mm | 2.24 m/s, 143° | 25 W/m² | - |
| 1777971383 | 20° C | 50% | 911.4 hPa | 0 mm | 2.24 m/s, 153° | 26 W/m² | - |
| 1777971083 | 20.56° C | 50% | 911.5 hPa | 0 mm | 2.24 m/s, 152° | 32 W/m² | - |
| 1777970783 | 20.56° C | 50% | 911.5 hPa | 0 mm | 2.24 m/s, 149° | 130 W/m² | - |
| 1777970483 | 20.56° C | 49% | 911.5 hPa | 0 mm | 2.68 m/s, 145° | 76 W/m² | - |
| 1777970183 | 20.56° C | 49% | 911.4 hPa | 0 mm | 3.58 m/s, 158° | 49 W/m² | - |
| 1777969883 | 20.56° C | 48% | 911.3 hPa | 0 mm | 3.13 m/s, 139° | 51 W/m² | - |
| 1777969583 | 21.11° C | 48% | 911.3 hPa | 0 mm | 2.24 m/s, 146° | 62 W/m² | - |
| 1777969283 | 21.11° C | 47% | 911.4 hPa | 0 mm | 2.24 m/s, 147° | 123 W/m² | - |
| 1777968983 | 21.11° C | 47% | 911.3 hPa | 0 mm | 2.24 m/s, 146° | 243 W/m² | - |
| 1777968697 | 21.11° C | 46% | 911.3 hPa | 0 mm | 1.79 m/s, 151° | 301 W/m² | - |
| 1777968383 | 21.11° C | 45% | 911.2 hPa | 0 mm | 1.79 m/s, 133° | 323 W/m² | - |
| 1777968083 | 21.11° C | 45% | 911.2 hPa | 0 mm | 2.24 m/s, 143° | 343 W/m² | - |
| 1777967783 | 21.11° C | 44% | 911.2 hPa | 0 mm | 1.79 m/s, 147° | 364 W/m² | - |
| 1777967483 | 21.11° C | 45% | 911.1 hPa | 0 mm | 2.24 m/s, 145° | 380 W/m² | - |
| 1777967183 | 21.67° C | 44% | 911.2 hPa | 0 mm | 2.24 m/s, 152° | 403 W/m² | - |
| 1777966883 | 21.11° C | 44% | 911.2 hPa | 0 mm | 2.68 m/s, 154° | 424 W/m² | - |
| 1777966583 | 21.67° C | 44% | 911.1 hPa | 0 mm | 2.68 m/s, 147° | 441 W/m² | - |
| 1777966283 | 21.67° C | 44% | 911.1 hPa | 0 mm | 2.24 m/s, 150° | 461 W/m² | - |
| 1777965983 | 21.67° C | 44% | 911.1 hPa | 0 mm | 1.79 m/s, 151° | 478 W/m² | - |
| 1777965683 | 21.67° C | 45% | 911.1 hPa | 0 mm | 2.68 m/s, 143° | 499 W/m² | - |
| 1777965383 | 21.67° C | 44% | 911 hPa | 0 mm | 2.68 m/s, 162° | 515 W/m² | - |
| 1777965083 | 21.67° C | 44% | 911 hPa | 0 mm | 2.24 m/s, 145° | 536 W/m² | - |
| 1777964783 | 22.22° C | 44% | 910.9 hPa | 0 mm | 2.24 m/s, 158° | 548 W/m² | - |
* Rain latest hour (hover to see other rain measurements)
** Current wind speed in m/s (hover to see current wind gust speed)